[keps] orb07179.2l.amsat

Ray Hoad r.hoad at att.net
Thu Jun 28 19:32:42 PDT 2007


SB KEPS @ AMSAT  $ORB07179.N
2Line Orbital Elements 07179.AMSAT

HR AMSAT ORBITAL ELEMENTS FOR AMATEUR SATELLITES IN NASA FORMAT
FROM WA5QGD FORT WORTH,TX June 28, 2007
Send SUBSCRIBE KEPS/UNSUBSCRIBE KEPS to majordomo at amsat.org only
BID: ORB07179.N

DECODE 2-LINE ELSETS WITH THE FOLLOWING KEY:
1 AAAAAU 00  0  0 BBBBB.BBBBBBBB  .CCCCCCCC  00000-0  00000-0 0  DDDZ
2 AAAAA EEE.EEEE FFF.FFFF GGGGGGG HHH.HHHH III.IIII JJ.JJJJJJJJKKKKKZ
KEY: A-CATALOGNUM B-EPOCHTIME C-DECAY D-ELSETNUM E-INCLINATION F-RAAN
G-ECCENTRICITY H-ARGPERIGEE I-MNANOM J-MNMOTION K-ORBITNUM Z-CHECKSUM

TO ALL RADIO AMATEURS BT

AO-07
1 07530U 74089B   07178.59613174 -.00000028  00000-0  10000-3 0 09122
2 07530 101.5126 216.2977 0011769 235.1477 124.8491 12.53572487492424
AO-10
1 14129U 83058B   07178.25664924 -.00000045  00000-0  10000-3 0 03934
2 14129 026.4172 269.8639 6064258 034.0314 352.9759 02.05868743180776
UO-11
1 14781U 84021B   07179.48460705 -.00000249  00000-0 -25951-4 0  4071
2 14781 098.1883 202.4028 0009694 129.7156 230.4912 14.79560610251409
RS-15
1 23439U 94085A   07178.89187363 -.00000039  00000-0  10597-3 0 00758
2 23439 064.8197 349.6086 0158921 188.7894 171.0241 11.27551844514908
FO-29
1 24278U 96046B   07178.92759970 -.00000062  00000-0 -29250-4 0 05436
2 24278 098.5522 137.1321 0351596 055.4887 307.8921 13.52931059536350
SO-33
1 25509U 98061B   07178.40070102  .00000206  00000-0  28240-4 0  9596
2 25509 031.4281 168.0007 0355124 156.7196 204.9947 14.28169953452711
AO-40
1 26609U 00072B   07177.89233415 -.00000291  00000-0  10000-3 0  8940
2 26609 005.7348 137.0601 7984100 333.7846 001.5834 01.25587613 30566
VO-52
1 28650U 05017B   07178.78171796  .00000385  00000-0  55773-4 0 06638
2 28650 097.8314 249.2628 0026537 217.1519 142.7829 14.81331573115980
PO-63
1 29712U 07001D   07179.53760825  .00000519  00000-0  75790-4 0  4957
2 29712 097.9204 238.5396 0015782 092.0589 268.2432 14.79741017 25012
AO-16
1 20439U 90005D   07178.57327592 -.00000005  00000-0  13384-4 0 00681
2 20439 098.1951 172.5565 0011065 150.7657 209.4152 14.31763513910038
LO-19
1 20442U 90005G   07179.44846885  .00000051  00000-0  33829-4 0  9958
2 20442 098.1791 182.7190 0012244 147.7242 212.4723 14.32004469910304
AO-27
1 22825U 93061C   07178.48937857 -.00000034  00000-0  29535-5 0  7177
2 22825 098.3297 147.9211 0007653 228.1286 131.9238 14.29211556716966
IO-26
1 22826U 93061D   07178.81491661  .00000018  00000-0  23418-4 0 04152
2 22826 098.3243 149.2995 0007983 225.9018 134.1512 14.29458244717098
PO-28
1 22829U 93061G   07178.48587895 -.00000004  00000-0  14354-4 0  6925
2 22829 098.3121 150.1496 0009081 197.8594 162.2258 14.30158459717287
GO-32
1 25397U 98043D   07178.70632596 -.00000089  00000-0 -21155-4 0 03363
2 25397 098.4132 225.4598 0001272 156.8473 203.2763 14.23127128465656
MO-46
1 26548U 00057D   07178.77014034  .00000020  00000-0  20407-4 0  8309
2 26548 064.5542 149.9245 0014053 196.8272 163.2388 14.83154156365109
NO-44
1 26931U 01043C   07178.86313097 -.00000093  00000-0 -38323-5 0 06220
2 26931 067.0504 119.9882 0007741 265.0566 094.9694 14.29488028299627
SO-50
1 27607U 02058C   07178.79490944 -.00000052  00000-0  13862-4 0 03464
2 27607 064.5595 052.8287 0055279 357.0682 003.0080 14.71268844242687
CO-55
1 27844U 03031E   07178.66986530  .00000026  00000-0  32511-4 0   601
2 27844 098.7171 186.8268 0011089 063.3216 296.9075 14.20518439206967
CO-57
1 27848U 03031J   07178.48044132  .00000037  00000-0  37624-4 0 00217
2 27848 098.7169 185.8320 0010775 065.7288 294.5036 14.20336801206919
AO-51
1 28375U 04025K   07179.61204090  .00000022  00000-0  19177-4 0  8499
2 28375 098.1110 218.3411 0083911 147.1699 213.4740 14.40572596157351
CO-56
1 28941U 06005C   07178.97926447  .00007030  25106-5  78293-4 0 04982
2 28941 098.1276 241.2800 0223700 234.5169 123.5043 15.40131247075097
HO-59
1 29484U 06041F   07179.32890766  .00018192  27113-5  12789-3 0  4538
2 29484 098.2817 230.8003 0204735 225.6562 132.7780 15.51706862 42802
NO-60
1 29661U 06055C   07150.05824307  .13324117  12618-4  10400-3 0  3000
2 29661 051.6186 176.5045 0007204 190.7749 188.7342 16.52052832 25544
NO-61
1 29664U 06055F   07179.47419574  .00026638  11452-4  86382-4 0  2512
2 29664 051.6322 032.8967 0011986 033.7396 326.4416 15.92327970 29955
CP4
1 31122U 07012F   07178.15988759  .00000597  00000-0  14251-3 0 00712
2 31122 098.0845 251.1152 0085736 355.3281 004.7024 14.55013644010302
CP3
1 31128U 07012M   07178.45220082 -.00000048  00000-0  00000-0 0 00658
2 31128 098.0857 251.0476 0102320 355.0952 004.9239 14.51842362010314
LIBERT
1 31129U 07012N   07179.68847600  .00000384  00000-0  10000-3 0  1844
2 31129 098.0792 252.2364 0102604 350.9752 008.9527 14.51934614 10472
NOAA-10
1 16969U 86073A   07179.44913674 -.00000047  00000-0 -90923-6 0  7087
2 16969 098.7443 196.6375 0012997 131.8707 228.3589 14.27327918 80830
NOAA-11
1 19531U 88089A   07179.16363832 -.00000022  00000-0  11362-4 0  7066
2 19531 098.8123 268.1910 0011710 004.2828 355.8450 14.14846444967702
NOAA-12
1 21263U 91032A   07179.18237649  .00000074  00000-0  49902-4 0  2029
2 21263 098.7508 176.4040 0013776 077.0505 283.2239 14.25539527837812
MET-3/5
1 21655U 91056A   07178.96008355  .00000051  00000-0  10000-3 0 03353
2 21655 082.5552 355.3317 0013151 176.3162 183.8055 13.17011476762828
MET-2/21
1 22782U 93055A   07178.71007669  .00000008  00000-0 -60695-5 0 08621
2 22782 082.5481 033.5674 0021639 203.3644 156.6545 13.83618448697978
OKEAN-4
1 23317U 94066A   07179.78929728 -.00000013  00000-0 -45884-5 0  3014
2 23317 082.5393 285.7086 0021297 210.5124 149.4876 14.82513384685771
NOAA-14
1 23455U 94089A   07179.47419064 -.00000165  00000-0 -63379-4 0  6867
2 23455 098.9894 245.7201 0010304 071.5420 288.6877 14.13720361644239
SICH-1
1 23657U 95046A   07178.75732793  .00000139  00000-0  14667-4 0 01031
2 23657 082.5281 067.6196 0022761 205.3561 154.6515 14.81495385637591
NOAA-15
1 25338U 98030A   07179.47919138 -.00000029  00000-0  56606-5 0   471
2 25338 098.5293 175.8431 0010608 003.0625 357.0631 14.24650301474296
RESURS
1 25394U 98043A   07178.74712520 -.00000007  00000-0  15053-4 0 06867
2 25394 098.4381 232.8588 0001767 126.0445 234.0898 14.24139308465854
FENGYUN1
1 25730U 99025A   07179.51039162  .00000693  00000-0  43499-3 0  1568
2 25730 098.6861 162.9460 0021898 094.8105 265.5538 14.07541415419066
OKEAN-0
1 25860U 99039A   07178.55411363  .00000029  00000-0  11628-4 0   884
2 25860 097.7299 180.3177 0001504 041.1249 319.0063 14.73460109427026
NOAA-16
1 26536U 00055A   07179.45315646 -.00000262  00000-0 -11682-3 0  4606
2 26536 099.1152 156.5902 0011158 138.1413 222.0616 14.12434372348696
NOAA-17
1 27453U 02032A   07179.48088010  .00000039  00000-0  35652-4 0  4724
2 27453 098.5796 248.5123 0012664 064.7827 295.4662 14.23889662260321
NOAA-18
1 28654U 05018A   07179.45664572  .00000338  00000-0  21171-3 0    93
2 28654 098.8283 120.5505 0013456 234.9167 125.0722 14.11076147108442
HUBBLE
1 20580U 90037B   07178.25287105  .00000291  00000-0  96635-5 0 09061
2 20580 028.4678 124.4861 0003773 200.0918 159.9523 15.00254383741476
UARS
1 21701U 91063B   07178.73995813  .00003354  00000-0  61257-4 0 01237
2 21701 056.9759 268.1389 0089402 209.2049 150.3992 15.48367151867382
PO-34
1 25520U 98064B   07178.96450752  .00000337  00000-0  69117-5 0 07677
2 25520 028.4594 036.6205 0005031 014.7670 345.3074 15.17013541479165
ISS
1 25544U 98067A   07179.97526758  .00014389  00000-0  84814-4 0  4846
2 25544 051.6340 042.9810 0008202 012.5239 128.8413 15.78453933492638
OO-38
1 26063U 00004C   07178.62235941 -.00000006  00000-0  18151-4 0  9454
2 26063 100.2266 183.1716 0037122 129.9055 230.5404 14.35809165388547
UWE-1
1 28892U 05043C   07178.70084607  .00000068  00000-0  23973-4 0 07839
2 28892 098.1317 075.1371 0018574 079.6546 280.6723 14.59516528088747
CO-58
1 28895U 05043F   07178.26785523  .00000022  00000-0  14284-4 0  7608
2 28895 098.1339 074.9288 0019085 080.8972 279.4372 14.59562795 88566
NCUBE2
1 28897U 05043H   07178.68427408  .00000099  00000-0  30316-4 0 02895
2 28897 098.1312 075.2925 0018311 080.6860 279.6413 14.59726143080903
NMARS
1 29662U 06055D   07126.39603970  .07031946  12599-4  11450-3 0  2632
2 29662 051.6121 302.3682 0004459 252.1654 110.7411 16.47981436 21652
FCAL
1 29667U 06055J   07178.96057501  .00009948  11098-4  46591-4 0 01996
2 29667 051.6337 037.7809 0014106 031.6768 328.5084 15.88555221029715
FALCON
1 30776U 07006E   07178.95061633  .00000153  00000-0  14281-4 0 00857
2 30776 035.4325 147.4118 0000783 238.9994 121.0650 15.02726730016673
MAST
1 31126U 07012K   07178.79163089  .00000393  00000-0  10000-3 0   674
2 31126 098.0822 251.5385 0094920 353.4260 006.5646 14.53348779 10391
CAPE1
1 31130U 07012P   07178.86483419 -.00000047  00000-0  28004-6 0 00593
2 31130 098.0831 251.4420 0102543 353.7052 006.2835 14.51861526010168
/EX






More information about the Keps mailing list